Regional Weather Roundup
Issued by NWS Sioux Falls, SD

Home | Current Version | Previous Version | Text Only | Print | Product List | Glossary Off
Versions: 1 2 3 4 5 6 7 8 9 10 11 12 13 14 15 16 17 18 19 20 21 22 23 24 25 26 27 28 29 30 31 32 33 34 35 36 37 38 39 40 41 42 43 44 45 46 47 48 49 50

000
ASUS43 KFSD 251910
RWRFSD

WEATHER ROUNDUP FOR SE SOUTH DAKOTA/SW MINNESOTA/NW IOWA
NATIONAL WEATHER SERVICE SIOUX FALLS SD
100 PM CST SUN JAN 25 2015

NOTE: "FAIR" INDICATES FEW OR NO CLOUDS BELOW 12,000 FEET WITH NO
SIGNIFICANT WEATHER AND OR OBSTRUCTIONS TO VISIBILITY.


SDZ038>040-050-052>070-252000-
SOUTHEAST SOUTH DAKOTA

CITY           SKY/WX    TMP DP  RH WIND       PRES   REMARKS
CHAMBERLAIN    CLOUDY    37  35  92 NW8       30.03F
HURON          CLOUDY    32  29  88 NW7       30.03F WCI  26
MADISON        CLOUDY    32  32 100 NW7       30.00F WCI  26
MITCHELL       CLOUDY    35  32  88 NW6       30.05F
SIOUX FALLS    CLOUDY    35  32  88 N8        30.01S WCI  29
WINNER         CLOUDY    40  31  70 NW15      30.04F
YANKTON        CLOUDY    36  30  80 NW10      30.06S
$$

MNZ071-072-080-081-089-090-097-098-252000-
SOUTHWEST MINNESOTA

CITY           SKY/WX    TMP DP  RH WIND       PRES   REMARKS
FAIRMONT       CLOUDY    28  23  80 N12       29.99R WCI  18
JACKSON        CLOUDY    28  25  86 N9        30.00R WCI  20
LUVERNE        CLOUDY    34  32  93 N7        30.01R WCI  28
MARSHALL       CLOUDY    28  25  86 N12       30.03S WCI  18
MONTEVIDEO     CLOUDY    32  27  80 SE3       30.03F
PIPESTONE      CLOUDY    30  30 100 N5        29.99S FOG     WCI  25
REDWOOD FALLS  CLOUDY    30  22  72 VRB6      30.02S WCI  24
TRACY          CLOUDY    30  28  90 N6        30.01S FOG     WCI  24
WINDOM         CLOUDY    28  27  93 N6        30.00S WCI  22
WORTHINGTON    CLOUDY    28  25  86 N8        30.01R WCI  20
$$

IAZ001>003-012>014-020>022-031-032-NEZ013-014-SDZ071-252000-
NORTHWEST IOWA

CITY           SKY/WX    TMP DP  RH WIND       PRES   REMARKS
CHEROKEE       CLOUDY    34  31  90 N8        30.00R WCI  27
DENISON        CLOUDY    37  34  87 N13G18    29.97R
ESTHERVILLE    CLOUDY    28  26  92 N14       29.99R WCI  17
LE MARS        CLOUDY    36  34  93 N7        30.02S
ORANGE CITY    CLOUDY    36  30  80 N5        30.00S
SHELDON        CLOUDY    34  34 100 NE9G16    29.99R WCI  26
SIOUX CITY     CLOUDY    38  34  85 N12       30.02R
SPENCER        CLOUDY    33  27  78 N10       29.99S WCI  25
STORM LAKE     CLOUDY    32  30  93 N10       29.99R WCI  24
$$

ABBREVIATIONS USED IN REMARKS
   TC - TEMPERATURE IN CELSIUS
  WCI - WIND CHILL INDEX
   HX - HEAT INDEX
  VSB - VISIBILITY



USA.gov is the U.S. government's official web portal to all federal, state and local government web resources and services.